Header for Extended Forecast Station List Page

Search by: ID | Name | Date | Parm | Value | Avg | % Avg
Sort by: ID | Name | Date | Parm | Value | Avg | % Avg

Enter search or view all records.

Click on id for station plot
#IDNameDateParmValueAvg% Avg
0BULO3BULLY CREEK-BULLY CREEK DAM01-22-2019INFLOW (KAF)4946
1BERO3MALHEUR-AGENCY VALLEY DAM01-22-2019INFLOW (KAF)254952
2HWRI1BIG LOST-AT HOWELL RANCH NEAR CHILLY01-22-2019DISCHARGE (KAF)284168
3LWRI1LITTLE WOOD-LITTLE WOOD DAM01-22-2019INFLOW (KAF)294663
4RIDI1WILLOW CREEK-RIRIE DAM01-22-2019INFLOW (KAF)313589
5MACI1BIG LOST-MACKAY RESERVOIR NEAR MACKAY01-22-2019INFLOW (KAF)3632113
6MYKO3MCKAY CREEK-NEAR PILOT ROCK01-22-2019DISCHARGE (KAF)374190
7DEDI1DEADWOOD-NEAR LOWMAN01-22-2019INFLOW (KAF)425478
8WRMO3MALHEUR-WARM SPRINGS DAM01-22-2019INFLOW (KAF)437657
9HALI1BIG WOOD-AT HAILEY01-22-2019DISCHARGE (KAF)549060
10BUDW1BUMPING-BUMPING LAKE DAM01-22-2019INFLOW (KAF)566193
11MAGI1BIG WOOD-MAGIC DAM01-22-2019INFLOW (KAF)5614638
12ARDW1ENTIAT-NEAR ARDENVOIR01-22-2019DISCHARGE (KAF)586688
13VALO3MALHEUR-NEAR VALE01-22-2019DISCHARGE (KAF)606296
14DLGM8CLARK FORK-AT DEER LODGE01-22-2019DISCHARGE (KAF)636892
15RCCM8ROCK CREEK-NEAR CLINTON01-22-2019DISCHARGE (KAF)709573
16HOTI1BRUNEAU-NEAR HOT SPRINGS01-22-2019DISCHARGE (KAF)7111263
17PIHI1PORTNEUF-AT POCATELLO01-22-2019DISCHARGE (KAF)729873
18MILI1SNAKE-AT MILNER01-22-2019DISCHARGE (KAF)7976010
19EASW1YAKIMA-AT EASTON01-22-2019DISCHARGE (KAF)8410085
20KADW1KACHESS-KACHESS DAM01-22-2019INFLOW (KAF)8577110
21RILW1TIETON-RIMROCK LAKE NEAR RIMROCK01-22-2019INFLOW (KAF)8611277
22KEDW1YAKIMA-KEECHELUS LAKE01-22-2019INFLOW (KAF)9481117
23GIBO3UMATILLA-NEAR GIBBON01-22-2019DISCHARGE (KAF)9482115
24STRM8ST. REGIS-NEAR ST. REGIS01-22-2019DISCHARGE (KAF)10916765
25TNAW1TEANAWAY-BELOW FORKS01-22-2019DISCHARGE (KAF)126116108
26TEAI1TETON-NEAR ST. ANTHONY01-22-2019DISCHARGE (KAF)13315387
27IPDI1HENRYS FORK-ISLAND PARK DAM01-22-2019INFLOW (KAF)13914696
28SATI1ST MARIES-NEAR SANTA01-22-2019DISCHARGE (KAF)140137102
29DRMM8CLARK FORK-NR DRUMMOND01-22-2019DISCHARGE (KAF)170MM
30CLFW1NACHES-NEAR CLIFFDEL01-22-2019DISCHARGE (KAF)17722977
31UMAO3UMATILLA-NEAR UMATILLA01-22-2019DISCHARGE (KAF)177177100
32CHEI1FALL RIVER-NEAR CHESTER01-22-2019DISCHARGE (KAF)186182102
33ARAI1SF BOISE-ANDERSON RANCH DAM01-22-2019INFLOW (KAF)18928566
34JLKW4SNAKE-JACKSON LAKE AT DAM01-22-2019INFLOW (KAF)19023182
35OWYO3OWYHEE-OWYHEE DAM01-22-2019INFLOW (KAF)19933859
36PDTO3UMATILLA-AT PENDLETON01-22-2019DISCHARGE (KAF)199196102
37PATW1METHOW-NEAR PATEROS01-22-2019DISCHARGE (KAF)21031068
38TCHW1WALLA WALLA-NEAR TOUCHET01-22-2019DISCHARGE (KAF)21121996
39CSDI1NF PAYETTE-CASCADE DAM01-22-2019INFLOW (KAF)22025985
40CLUW1CLE ELUM-CLE ELUM LAKE01-22-2019INFLOW (KAF)226210108
41NACW1NACHES-NEAR NACHES01-22-2019DISCHARGE (KAF)24627390
42HODO3HOOD-NEAR TUCKER BRIDGE01-22-2019DISCHARGE (KAF)26228791
43UNDW1WHITE SALMON-NEAR UNDERWOOD01-22-2019DISCHARGE (KAF)29335283
44CHDW1CHELAN-LAKE CHELAN DAM01-22-2019INFLOW (KAF)29838777
45BONM8BLACKFOOT-NEAR BONNER01-22-2019DISCHARGE (KAF)30535187
46WSRI1WEISER-NEAR WEISER01-22-2019DISCHARGE (KAF)30537382
47BIGI1BOISE-AT GLENWOOD BRIDGE01-22-2019DISCHARGE (KAF)308234132
48MONO3NF JOHN DAY-AT MONUMENT01-22-2019DISCHARGE (KAF)32954061
49PITW1KLICKITAT-NEAR PITT01-22-2019DISCHARGE (KAF)34650169
50PARI1BOISE-NEAR PARMA01-22-2019DISCHARGE (KAF)376348108
51WGCM8MF FLATHEAD-NEAR WEST GLACIER01-22-2019DISCHARGE (KAF)38255069
52BITM8BITTERROOT-NEAR MISSOULA01-22-2019DISCHARGE (KAF)38647881
53FCFM8NF FLATHEAD-NEAR COLUMBIA FALLS01-22-2019DISCHARGE (KAF)40257969
54PRTI1PRIEST-NEAR PRIEST RIVER01-22-2019DISCHARGE (KAF)40446387
55JKSW4SNAKE-NEAR JACKSON01-22-2019DISCHARGE (KAF)45849792
56TONW1OKANOGAN-NEAR TONASKET01-22-2019DISCHARGE (KAF)46159977
57ANTI1HENRYS FORK-AT ST. ANTHONY01-22-2019DISCHARGE (KAF)47147699
58PARW1YAKIMA-NEAR PARKER01-22-2019DISCHARGE (KAF)48061878
59SERO3JOHN DAY-AT SERVICE CK01-22-2019DISCHARGE (KAF)49079761
60UMTW1YAKIMA-AT UMTANUM01-22-2019DISCHARGE (KAF)49750998
61REXI1HENRYS FORK-AT REXBURG01-22-2019DISCHARGE (KAF)50254991
62EMMI1PAYETTE-NEAR EMMETT01-22-2019DISCHARGE (KAF)52779766
63ABOM8CLARK FORK-ABOVE MISSOULA01-22-2019DISCHARGE (KAF)56567983
64PESW1WENATCHEE-AT PESHASTIN01-22-2019DISCHARGE (KAF)60265991
65HHWM8SF FLATHEAD-HUNGRY HORSE DAM01-22-2019INFLOW (KAF)60580675
66LAUW1KETTLE-AT LAURIER01-22-2019DISCHARGE (KAF)61281275
67ALPW4SNAKE-NEAR ALPINE01-22-2019DISCHARGE (KAF)61367691
68LUCI1BOISE-LUCKY PEAK DAM01-22-2019INFLOW (KAF)647MM
69KIOW1YAKIMA-AT KIONA01-22-2019DISCHARGE (KAF)71396474
70TRYO3GRANDE RONDE-TROY01-22-2019DISCHARGE (KAF)74597676
71BELM8CLARK FORK-BELOW MISSOULA01-22-2019DISCHARGE (KAF)951116482
72PLDI1SF SNAKE-PALISADES DAM01-22-2019INFLOW (KAF)958112186
73BFTI1SNAKE-NEAR BLACKFOOT01-22-2019DISCHARGE (KAF)1013121384
74SNAI1SNAKE-AT BLACKFOOT01-22-2019DISCHARGE (KAF)1029118487
75HEII1SNAKE-NEAR HEISE01-22-2019DISCHARGE (KAF)11951174102
76SHYI1SNAKE-NEAR SHELLEY01-22-2019DISCHARGE (KAF)1206134790
77LYDM8KOOTENAI-LIBBY DAM01-22-2019INFLOW (KAF)1254172773
78SIFI1SNAKE-AB EAGLE ROCK NR IDAHO FALLS01-22-2019DISCHARGE (KAF)1299131699
79SRGM8CLARK FORK-AT ST REGIS01-22-2019DISCHARGE (KAF)1346163682
80CFMM8FLATHEAD-AT COLUMBIA FALLS01-22-2019DISCHARGE (KAF)1374199869
81MODO3DESCHUTES-AT MOODY NR BIGGS01-22-2019DISCHARGE (KAF)1404159688
82KERM8FLATHEAD-KERR DAM01-22-2019INFLOW (KAF)1521257359
83AFRI1SNAKE-AMERICAN FALLS RESERVOIR01-22-2019INFLOW (KAF)1588191583
84WHBI1SALMON-AT WHITEBIRD01-22-2019DISCHARGE (KAF)1665223774
85LEOI1KOOTENAI-AT LEONIA01-22-2019DISCHARGE (KAF)1699222876
86SWAI1SNAKE-BELOW SWAN FALLS01-22-2019DISCHARGE (KAF)1756272564
87DWRI1NF CLEARWATER-DWORSHAK DAM01-22-2019INFLOW (KAF)18491845100
88SPOW1SPOKANE-AT SPOKANE01-22-2019DISCHARGE (KAF)2040MM
89COEI1COEUR D ALENE-COEUR D ALENE LAKE01-22-2019INFLOW (KAF)2190240191
90LLKW1SPOKANE-AT LONGLAKE01-22-2019INFLOW (KAF)2409284185
91ORFI1CLEARWATER-AT OROFINO01-22-2019DISCHARGE (KAF)2459259695
92WEII1SNAKE-AT WEISER01-22-2019DISCHARGE (KAF)3229494965
93NOXM8CLARK FORK-NOXON RAPIDS DAM01-22-2019INFLOW (KAF)3281519063
94BRNI1SNAKE-BROWNLEE DAM01-22-2019INFLOW (KAF)3576531167
95CABI1CLARK FORK-CABINET GORGE DAM01-22-2019INFLOW (KAF)3660544867
96SPDI1CLEARWATER-AT SPALDING01-22-2019DISCHARGE (KAF)3795447085
97ALFW1PEND OREILLE-ALBENI FALLS DAM01-22-2019INFLOW (KAF)4641664770
98ANAW1SNAKE-NEAR ANATONE01-22-2019DISCHARGE (KAF)5898950362
99LGDW1SNAKE-LOWER GRANITE DAM01-22-2019INFLOW (KAF)96931398469
100LGSW1SNAKE-LITTLE GOOSE DAM01-22-2019INFLOW (KAF)96931404069
101LMNW1SNAKE-LOWER MONUMENTAL DAM01-22-2019INFLOW (KAF)100201430670
102IHDW1SNAKE-ICE HARBOR DAM01-22-2019INFLOW (KAF)100201413571
103CIBW1COLUMBIA-AT INTL BOUNDARY01-22-2019DISCHARGE (KAF)15905MM
104GCDW1COLUMBIA-GRAND COULEE DAM01-22-2019INFLOW (KAF)189772146188
105CHJW1COLUMBIA-CHIEF JOSEPH DAM01-22-2019INFLOW (KAF)192752481078
106WELW1COLUMBIA-WELLS DAM01-22-2019INFLOW (KAF)199312569778
107RRHW1COLUMBIA-ROCKY REACH DAM01-22-2019INFLOW (KAF)202682610478
108PRWW1COLUMBIA-PRIEST RAPIDS DAM01-22-2019INFLOW (KAF)208622483084
109WANW1COLUMBIA-WANAPUM DAM01-22-2019INFLOW (KAF)208642455085
110MCDW1COLUMBIA-MCNARY DAM01-22-2019INFLOW (KAF)316964128377
111JDAO3COLUMBIA-JOHN DAY DAM01-22-2019INFLOW (KAF)335994366577
112TDAO3COLUMBIA-THE DALLES DAM01-22-2019INFLOW (KAF)340304534475
113BONO3COLUMBIA-BONNEVILLE DAM01-22-2019INFLOW (KAF)349124811573
114BFEI1KOOTENAI-AT BONNERS FERRY01-22-2019STAGE (FT)MMM
115HOPI1PEND OREILLE-PEND OREILLE LAKE NR HOPE01-22-2019LAKE ELEVATION (FT)MMM
116SJMI1ST JOE-AT ST MARIES01-22-2019STAGE (FT)MMM